Regional Weather Roundup
Issued by NWS Albany, NY

Home | Current Version | Previous Version | Graphics & Text | Print | Product List | Glossary On
Versions: 1 2 3 4 5 6 7 8 9 10 11 12 13 14 15 16 17 18 19 20 21 22 23 24 25 26 27 28 29 30 31 32 33 34 35 36 37 38 39 40 41 42 43 44 45 46 47 48 49 50
995
ASUS41 KALY 280110
RWRALY

NEW YORK STATE HOURLY WEATHER ROUNDUP
NATIONAL WEATHER SERVICE ALBANY NY
900 PM EDT TUE SEP 27 2016

NOTE: "FAIR" INDICATES FEW OR NO CLOUDS BELOW 12,000 FEET WITH NO
SIGNIFICANT WEATHER AND/OR NO OBSTRUCTIONS TO VISIBILITY.

NYZ032-033-038>043-046>054-057>066-NYZ062>081-082-084-280200-
EAST


CITY           SKY/WX    TMP DP  RH WIND       PRES   REMARKS
ALBANY         PTCLDY    58  53  84 CALM      29.94R
GLENS FALLS    PTCLDY    53  50  89 CALM      29.94R
POUGHKEEPSIE   CLEAR     57  54  89 CALM      29.94R
NEWBURGH       CLEAR     59  54  82 SW8       29.96R
MONTGOMERY     CLEAR     54  52  93 CALM      29.95R
WHITE PLAINS   CLEAR     61  58  90 CALM      29.95R
ISLIP          PTCLDY    64  61  90 CALM      29.95R
NEW YORK CITY  PTCLDY    70  63  78 S8        29.94R
CENTRAL PARK   CLEAR     66  61  84 CALM      29.97R
$$

NYZ005>009-017-018-044>046-055-056-280200-
CENTRAL


CITY           SKY/WX    TMP DP  RH WIND       PRES   REMARKS
FULTON         CLEAR     52  48  86 CALM      29.91R
SYRACUSE       PTCLDY    55  48  77 E5        29.91R
ROME           MOCLDY    56  50  80 CALM      29.94R
ELMIRA         CLEAR     48  39  71 CALM      29.93R
BINGHAMTON     CLEAR     58  44  60 S6        29.94R
MONTICELLO     CLEAR     54  52  94 CALM      29.98R
$$

NYZ026>034-041>043-087-280200-
NORTH


CITY           SKY/WX    TMP DP  RH WIND       PRES   REMARKS
WATERTOWN      PTCLDY    55  44  66 E6        29.91R
FORT DRUM      NOT AVBL
OGDENSBURG     MOCLDY    51  49  93 CALM      29.92R
MASSENA        MOCLDY    48  45  89 CALM      29.94R
SARANAC LAKE   PTCLDY    47  44  90 CALM      29.96R
PLATTSBURGH    CLOUDY    60  53  77 CALM      29.93R
$$

NYZ001>004-010>016-019>021-085-280200-
WEST


CITY           SKY/WX    TMP DP  RH WIND       PRES   REMARKS
NIAGARA FALLS  LGT RAIN  60  49  66 CALM      29.85R
BUFFALO        CLOUDY    62  42  47 S10       29.85R
DUNKIRK        PTCLDY    62  42  47 W9        29.86R
JAMESTOWN      MOCLDY    55  39  54 S5        29.88R
WELLSVILLE     PTCLDY    59  35  40 S6        29.96R
ROCHESTER      CLEAR     59  42  53 S5        29.89R
PENN YAN       CLEAR     51  39  63 CALM      29.93R
$$

             KEY
       WCI = WIND CHILL INDEX
       VSB = VISIBILITY
       HX  = HEAT INDEX
$$




USA.gov is the U.S. government's official web portal to all federal, state and local government web resources and services.